SV1DAY-13 Weather Reports


time (UTC)temp
C
wind
direction
speed
KPH
gust
KPH
rain 1hr
cm
rain 24hr
cm
rain mn
cm
humidity
%
barometer
mb
20260504081551 13 279 29.0 49.9 0.00 0.00 0.00 50 1016.6
20260504050117 11 265 33.8 78.9 0.00 0.00 0.00 57 1014.5
20260504044548 11 265 40.2 64.4 0.00 0.00 0.00 58 1014.3
20260504043041 11 279 33.8 69.2 0.00 0.00 0.00 58 1014.3
20260504041543 11 280 41.8 67.6 0.00 0.00 0.00 57 1014.1
20260504040104 11 278 40.2 70.8 0.00 0.00 0.00 56 1013.5
20260504034554 11 279 29.0 54.7 0.00 0.00 0.00 59 1013.8
20260504033050 11 261 27.4 49.9 0.00 0.00 0.00 59 1013.7
20260504031605 11 275 45.1 74.0 0.00 0.00 0.00 59 1013.3
20260504030042 11 360 37.0 62.8 0.00 0.00 0.00 60 1013.2
20260504024545 11 236 35.4 72.4 0.00 0.00 0.00 59 1013.4
20260504023100 11 15 45.1 80.5 0.00 0.00 0.00 59 1013.0
20260504021600 11 280 49.9 78.9 0.00 0.00 0.00 56 1013.0
20260504020048 11 289 45.1 72.4 0.00 0.00 0.00 55 1013.1
20260504014550 11 360 51.5 88.5 0.00 0.00 0.00 54 1013.0
20260504013046 11 360 49.9 75.6 0.00 0.00 0.00 54 1012.7
20260504011559 11 9 53.1 93.3 0.00 0.00 0.00 56 1012.8
20260504010108 11 282 43.5 78.9 0.00 0.00 0.00 57 1013.1
20260504004555 11 278 48.3 77.2 0.00 0.00 0.00 54 1013.0
20260504003050 11 360 48.3 83.7 0.00 0.00 0.00 56 1012.9
20260504001604 11 267 48.3 83.7 0.00 0.00 0.00 54 1012.7
20260504000041 11 360 41.8 75.6 0.00 0.00 0.00 54 1012.6
20260503234600 11 360 48.3 91.7 0.00 0.00 0.00 53 1012.8
20260503233056 11 360 45.1 88.5 0.00 0.00 0.00 55 1012.7
20260503231501 11 281 49.9 74.0 0.00 0.00 0.00 56 1012.7
20260503230048 11 312 51.5 85.3 0.00 0.00 0.00 56 1012.7
20260503224552 11 265 46.7 72.4 0.00 0.00 0.00 59 1012.7
20260503223047 11 360 32.2 56.3 0.00 0.00 0.00 61 1012.9
20260503221557 11 30 30.6 59.5 0.00 0.00 0.00 63 1012.6
20260503220053 11 360 30.6 51.5 0.00 0.00 0.00 64 1012.6
20260503214558 11 267 35.4 62.8 0.00 0.00 0.00 65 1012.6
20260503213120 11 360 41.8 70.8 0.00 0.00 0.00 64 1012.6
20260503211612 11 360 40.2 69.2 0.00 0.00 0.00 62 1012.2
20260503210042 11 243 45.1 66.0 0.00 0.00 0.00 64 1012.3
20260503204621 10 263 38.6 62.8 0.00 0.00 0.00 65 1012.2
20260503203104 10 360 37.0 77.2 0.00 0.00 0.00 65 1012.4
20260503201553 10 13 30.6 57.9 0.00 0.00 0.00 65 1012.6
20260503200002 10 267 51.5 74.0 0.00 0.00 0.00 66 1011.7
20260503194546 10 30 32.2 54.7 0.00 0.00 0.00 66 1012.2
20260503193045 10 246 30.6 67.6 0.00 0.00 0.00 65 1012.1
20260503191606 10 66 37.0 70.8 0.00 0.00 0.00 65 1011.8
20260503190055 10 19 27.4 70.8 0.00 0.00 0.00 64 1011.8
20260503184630 10 13 38.6 64.4 0.00 0.00 0.00 64 1011.8
20260503183059 10 255 32.2 66.0 0.00 0.00 0.00 65 1011.9
20260503181545 10 248 40.2 61.2 0.00 0.00 0.00 65 1011.4
20260503180038 10 277 49.9 75.6 0.00 0.00 0.00 65 1010.8
20260503174552 10 261 40.2 64.4 0.00 0.00 0.00 65 1011.3
20260503173130 10 265 38.6 78.9 0.00 0.00 0.00 65 1011.1
20260503171548 10 312 51.5 70.8 0.00 0.00 0.00 65 1010.7